ARASE (ERG)

导读 | 星芒AI

ARASE(ERG)卫星是由日本宇宙航空研究开发机构(JAXA)与美国国家航空航天局(NASA)合作发射的科学卫星,于2016年发射升空。其主要任务是研究地球磁层中的高能粒子加速机制,特别是范艾伦辐射带内的电子加速过程。ARASE搭载多种先进仪器,用于测量等离子体、磁场和高能粒子,旨在揭示宇宙射线和空间天气现象的形成机制,为理解地球空间环境和宇宙辐射提供关键数据。

基本信息
目录编号:
41896
目录名称:
ARASE (ERG)
国际标识:
2016-080A
轨道中心:
EARTH
卫星名称:
ARASE (ERG)
卫星全名:
--
卫星状态:
在轨 (已飞行3235 天)
发射日期:
2016-12-20 UTC
国别 :
日本 (JP)
星等 :
--
轨道信息
数据来源 国际轨道数据
星历时间: 2025-10-24T21:43:31+0800
4天前
查看轨道信息
半长轴: 22503.644km
偏心率: 0.6983939
轨道倾角: 31.492°
近地点辐角 263.425°
升交点赤经 102.193°
平近点角 19.784°
近地点: 409.101km
远地点: 31841.917km
周期: 559.937分钟
每日圈数: 2.571719
详细信息
使用方式:
暂无
2D轨道图
3D轨道图
轨道高度分析图
轨道倾角分析图
轨道综合分析图
查看轨道综合分析图